Find Starlink 11743

NORAD ID: 64379 Int'l Des: 2025-127 Owner: SPXS Country: US Constellation: starlink operational
別名: STARLINK-11743 [DTC] celestrak
LEOCIRCULAR

現在のビュー

3D地球を読み込み中...

About Starlink 11743

Starlink 11743 (NORAD 64379) is a starlink constellation satellite (v2 mini d2c) launched Jun 13, 2025 by SPXS of US. It operates in LEO, CIRCULAR orbit with a mass of 960.00 kg.

次回通過

Passes for default location (London). Set your location on the main map for personalized predictions.

高度履歴

Loading altitude history...

軌道要素

1 64379U 25127K 26263.28788730 .00182218 00000-0 13853-2 0 9992
2 64379 42.9989 351.9158 0001495 242.1387 117.9329 15.70965467 74104
Epoch: Sep 20, 2026 • Age: 22 hours

現在のステータス

高度 354.4 km
遠地点 / 近地点 N/A
速度 7.70 km/s
衛星直下点 2.71°N, 88.16°E
打ち上げ日 Jun 13, 2025
運用期間 1.2 years
タイプ internet

技術仕様

分類 Payload
質量 960.00 kg
乾燥質量 910.00 kg
長さ 0.30 m
スパン 29.00 m
形状 ? Box + pan
製造者 SPXS
バスタイプ Starlink V2MD
フェーズステータス In Orbit
所有者/国 SPXS/US

Most Searched